Location: Unnamed
(51.8936°N, 11.0665°E)
Time: 01:32:00
(UTC+02:00)

UKube-1 - Pass Details

Date: 29 September 2021
Orbit: 611 x 618 km, 98.4° (Epoch: 18 October)

Event Time Altitude Azimuth Distance (km) Brightness Sun altitude
Rises 00:08:34 0° 360° (N) 2,893 ? -39.0°
Reaches altitude 10° 00:12:24 10° 324° (NW) 1,983 ? -39.2°
Enters shadow 00:12:31 10° 323° (NW) 1,971 ? -39.2°
